DELTA 1 DEB, 42659

Orbit data source: Space-Track

DELTA 1 DEB, 42659 is space debris in SSO originally from a launch on Thu, 12 Jun 1975 UTC launched from the Air Force Western Test Range (AFWTR). Debris objects in space refer to the collection of defunct objects orbiting the Earth. Examples of debris include non-operational satellites, rocket bodies, and fragments generated from explosions, collisions, or faulty payload assembly.

Loading next visibility...
Identifier
42659, 1975-052MU
Orbit
SSO
Country
Flag of USUS
Related business
Manufacturer
Unknown
Mission
Spacecraft
Bus & Motor
Unknown
Mass
Unknown
Launch date (UTC)
1975-06-12 (51 years ago)
Launch vehicle
Unknown
Launch site
Air Force Western Test Range (AFWTR)
Object type
Payload
Rocket body
Debris
Shape & HBR
Unknown shape, 0.1 m
Radar Cross Section
Small (<0.1 m²)

Expand to show TLE details & history
Last TLE update: 3 days ago

TLE from 3 days ago
0 DELTA 1 DEB
1 42659U 75052MU  25351.55703881  .00008378  00000-0  70956-3 0  9994
2 42659  98.1917 106.4314 0001537 135.7631 280.3699 14.98270489650486
Epoch: 2025-12-17T13:22Z
TLE epoch observation values (Epoch: 2025-12-17T13:22:08.153Z)
Latitude
55.3585°
Longitude
167.51311°
Altitude
581.248 km
Speed
7.575 km/s
True Right ascension
06h 17m 53s
True Declination
55° 11' 36"
Sunlit
Object was in full shadow at epoch
Visualization orbit readout
Latitude
Unknown
Longitude
Unknown
Altitude
Unknown
Speed
Unknown
Apparent Right ascension
Unknown
Apparent Declination
Unknown
Sunlit
N/A
Visualization observer readout
Local Sidereal Time
12:38:34
Azimuth
Unknown
Elevation
Unknown
Doppler factor
Unknown
Orbital elements
Apogee altitude
570.338 km
Perigee altitude
568.202 km
Semi-major axis
6,947.407 km
Eccentricity
0.00015
Inclination
98.1917°
RAAN
106.4314°
Arg. of periapsis
135.7631°
True anomaly
280.35257°
Mean anomaly
280.3699°
Eccentric anomaly
280.36124°
Mean motion
3.74808 °/min
Orbital period
96.05 mins
BSTAR
0.00070956
Loading maneuver chart data...
Computing Atmospheric mass density...
Loading historical data...
Loading historical data...
Loading historical data...
Loading historical data...
Loading historical data...
Loading historical data...
Loading historical data...

Documentation

Showing up to 5 results
|